Wind_Speed
8 8 10 9 4 2 3 3 7 9 1 11 19 16 12 13 16 14 5 12 10 8 3 4 4 3 2 1 2 3 6 5 7 9 10 9 7 8 9 10 11 11 12 13
8 9 9 5 1 2 4 4 1 6 8 13 18 16 16 15 12 8 4 4 10 9 5 4 3 2 1 2 3 1 6 8 8 8 8 10 10 11 13 14 14 14 14 16
5 8 6 1 2 2 0 6 4 4 2 10 17 21 20 16 14 12 7 3 7 5 6 3 2 2 4 3 3 1 1 4 7 11 13 13 12 13 13 14 13 13 14 16
5 7 6 2 1 2 6 1 2 2 5 5 8 11 23 22 20 16 13 13 8 9 8 6 1 1 1 2 3 3 3 5 8 12 16 18 18 14 15 20 20 21 20 20
6 8 7 7 4 3 5 7 6 7 6 7 8 5 28 27 23 22 17 17 12 8 7 2 2 0 2 1 2 3 5 5 8 11 17 18 16 20 21 23 23 22 23 23
10 6 7 7 4 1 4 3 4 5 5 2 2 7 25 32 31 26 22 18 12 8 8 6 6 6 6 6 4 7 9 13 14 13 15 18 20 22 23 24 24 26 26 25
10 9 10 10 9 7 5 6 4 4 4 5 9 6 4 21 27 28 23 19 15 12 13 9 8 8 7 4 3 4 10 16 18 20 20 20 22 22 24 25 27 29 30 28
6 3 11 19 17 9 7 2 0 3 2 7 6 4 4 11 28 29 20 15 13 11 12 8 9 11 4 3 5 6 12 15 19 24 19 23 26 27 29 31 32 32 32 32
7 2 6 10 13 8 5 2 3 3 3 2 3 1 1 3 32 27 20 17 15 13 11 11 11 8 7 8 8 10 11 15 21 23 27 28 25 27 32 35 38 39 39 40
9 9 9 12 10 9 3 0 1 3 2 3 1 4 3 13 24 27 22 18 16 13 13 14 11 11 11 11 11 13 14 20 24 26 29 31 31 31 30 34 37 39 42 44
20 14 12 15 12 11 6 7 5 3 1 5 1 2 8 20 21 16 17 18 18 17 17 13 13 13 14 15 17 17 17 21 27 33 34 34 34 36 37 37 38 39 42 44
27 17 17 15 13 8 6 6 11 10 6 6 3 4 4 18 19 19 18 20 21 17 14 15 15 15 17 19 20 20 24 31 36 35 35 31 35 38 38 39 40 38 42 43
28 18 15 10 9 9 6 5 6 9 8 11 6 5 10 20 13 19 20 17 16 18 19 19 19 19 19 20 22 25 31 33 33 34 36 36 37 37 41 43 44 42 42 43
31 21 23 20 12 11 10 8 5 4 6 10 13 7 7 11 14 16 15 17 20 21 22 22 23 23 23 25 28 28 33 34 40 42 45 43 42 39 40 41 43 43 39 38
19 14 13 8 6 7 9 11 9 10 8 6 6 6 5 14 16 18 18 21 23 25 26 25 23 24 25 23 26 33 33 37 40 45 50 49 49 42 41 40 40 39 38 36
17 12 10 9 10 13 14 13 11 8 9 13 13 14 14 14 13 19 24 24 23 22 22 23 22 22 25 28 26 29 37 45 49 51 49 44 42 41 41 38 36 36 36 37
18 17 16 10 12 9 6 11 11 13 14 17 18 21 20 18 16 13 18 20 21 21 21 23 25 27 24 23 30 38 47 47 43 42 45 39 40 39 38 35 35 34 34 36
18 16 14 9 10 2 5 9 10 16 8 8 8 8 7 8 11 12 16 18 20 22 23 23 24 25 27 31 37 43 43 46 45 48 49 42 39 39 36 33 33 32 32 34
14 16 9 6 11 5 8 12 15 12 13 13 12 8 9 12 14 15 17 20 22 23 24 26 30 33 37 41 46 48 48 50 47 45 47 43 38 38 34 29 28 29 32 33
12 11 11 10 6 8 14 13 12 10 15 15 16 16 16 17 17 17 19 21 24 28 32 35 35 39 42 38 47 50 49 48 41 44 40 39 35 33 31 28 30 32 31 32
11 9 14 15 13 9 11 10 13 15 17 10 11 15 14 14 14 17 23 30 33 34 36 37 42 42 44 47 50 49 45 41 43 43 38 38 33 30 30 30 29 30 24 24
10 8 10 12 13 11 14 15 19 18 17 17 14 16 18 20 23 26 28 31 34 36 38 42 47 49 49 49 48 43 40 44 40 38 35 33 32 27 28 30 26 25 23 26
10 12 9 9 6 7 10 15 13 14 14 14 14 14 16 18 22 26 29 31 35 39 42 42 44 47 47 48 41 39 37 35 37 37 33 30 32 26 29 29 28 22 21 19
12 11 8 7 8 7 7 6 8 10 12 14 16 15 15 20 25 29 32 33 35 35 38 37 42 39 45 41 37 38 38 39 41 35 31 29 29 27 28 26 23 22 17 9
11 8 9 9 7 5 4 6 7 8 12 14 16 18 20 24 31 35 34 35 34 34 40 43 42 40 34 33 35 34 36 37 34 31 28 28 27 27 24 23 22 20 16 4
12 10 9 10 9 8 9 11 12 12 12 16 21 24 30 32 32 30 31 33 35 37 35 32 32 34 25 27 27 30 33 34 28 25 26 27 30 30 27 22 19 12 8 5
Wind_Direction
119 117 121 124 117 53 29 358 194 200 249 193 178 191 210 199 161 151 185 152 159 158 139 116 97 110 145 108 180 232 211 211 230 238 243 242 232 236 243 248 246 245 249 254
123 126 124 109 36 336 20 339 11 180 183 187 178 178 195 205 202 202 185 172 175 172 185 156 125 359 7 278 310 205 232 246 247 245 251 250 243 228 222 222 231 242 250 255
121 132 152 173 319 246 41 59 128 145 169 160 181 174 179 196 206 202 198 178 162 155 224 216 104 56 321 308 273 225 38 236 260 255 251 253 249 252 268 281 281 273 260 257
159 174 190 233 129 91 190 194 357 269 222 191 177 180 190 203 207 214 228 212 196 174 184 217 224 354 268 258 177 194 286 292 270 248 248 254 255 254 266 266 271 272 266 260
159 139 203 194 206 295 307 271 281 330 274 272 261 204 197 205 204 210 216 216 205 203 194 190 265 153 19 316 350 331 314 306 296 254 248 249 258 252 263 269 268 268 274 273
188 191 197 237 260 324 33 2 259 304 229 275 302 224 190 202 222 206 211 214 214 210 207 192 202 175 130 84 41 27 8 337 307 292 270 269 272 261 263 261 259 266 268 268
231 244 226 225 262 270 266 3 24 15 10 225 332 302 247 221 224 225 219 200 204 210 223 232 194 186 164 37 22 2 350 349 346 292 275 270 265 266 265 265 266 271 273 274
213 223 218 234 230 246 223 260 355 190 227 290 344 303 261 223 215 209 206 205 210 224 224 238 213 203 204 276 279 296 320 324 331 338 312 283 275 267 265 263 260 259 260 259
167 163 136 158 189 189 176 200 216 188 218 291 319 118 261 249 203 197 200 207 221 236 243 244 223 237 263 288 293 297 277 303 327 325 323 314 289 279 274 272 269 266 261 256
191 147 152 171 181 202 229 181 265 246 158 262 301 218 241 173 182 193 203 216 222 247 252 243 260 291 302 301 294 301 308 322 325 318 316 311 303 295 282 276 272 271 270 266
219 205 186 180 198 215 195 221 212 156 184 161 213 268 246 209 199 219 234 224 230 233 228 248 270 285 294 297 297 295 298 307 306 306 311 306 295 287 281 279 276 274 269 268
222 227 186 189 193 193 233 263 236 212 204 199 215 241 184 196 226 234 232 220 218 223 245 255 265 273 274 282 291 290 290 298 303 305 301 299 300 299 294 288 283 277 277 274
213 203 182 144 155 180 205 191 209 235 240 217 187 243 232 235 242 219 216 214 227 238 246 251 253 257 264 267 275 293 294 300 303 314 308 301 297 292 293 290 289 284 279 279
203 199 208 202 203 181 172 186 194 200 240 248 239 257 232 220 200 204 225 240 237 233 239 245 252 258 271 291 286 290 302 308 311 313 314 312 312 296 292 292 291 291 282 277
204 204 183 162 200 228 248 253 247 236 254 250 275 267 240 231 229 268 255 246 251 255 254 256 268 280 276 278 290 301 307 311 306 308 310 306 305 297 294 295 291 289 283 277
196 176 189 197 226 237 241 260 262 262 257 262 261 260 256 267 271 242 240 247 249 256 266 271 272 279 283 290 295 308 308 306 304 306 306 305 299 295 296 296 292 287 283 278
213 200 187 195 209 217 240 254 252 262 273 274 271 270 272 274 276 259 236 237 244 251 263 270 275 282 290 298 303 307 309 307 307 311 313 309 303 297 296 292 289 286 283 280
208 196 184 182 186 173 229 239 258 287 271 302 309 291 246 209 216 220 222 232 245 254 264 273 281 289 294 306 316 315 313 315 311 307 309 307 303 299 294 288 286 286 286 286
205 205 186 194 194 211 204 236 265 257 278 285 286 265 234 229 226 237 250 255 259 263 271 280 287 294 301 306 308 312 310 308 309 306 309 306 300 299 292 285 284 289 292 293
197 210 223 204 207 210 262 255 260 267 282 274 267 263 250 246 240 250 263 273 279 286 294 298 300 302 304 306 308 307 304 305 303 307 306 304 300 297 288 285 291 295 296 297
202 226 231 235 238 241 244 235 267 251 279 295 284 270 275 277 275 278 288 295 302 303 300 298 303 302 300 300 301 302 302 304 307 305 305 306 298 290 282 286 294 299 297 292
252 244 236 251 248 251 240 228 230 265 263 263 259 265 272 278 287 296 301 305 305 300 300 299 297 293 289 294 296 295 299 302 302 302 306 301 295 286 283 287 287 293 292 286
238 239 246 235 216 224 209 223 225 235 248 260 258 264 276 287 294 297 298 296 293 294 294 294 295 294 291 291 289 297 298 296 302 306 305 300 295 290 288 286 287 281 276 282
192 193 197 203 199 204 213 223 244 262 264 268 279 291 297 300 300 301 300 296 300 299 299 297 304 307 298 288 282 289 292 296 302 304 302 299 296 292 286 283 281 273 254 249
198 190 200 198 185 207 248 247 254 263 265 271 285 295 299 303 305 305 302 302 302 306 309 302 299 306 303 284 283 288 293 300 304 303 301 299 298 296 286 283 275 264 244 221
224 211 206 195 209 226 250 265 276 283 300 305 306 306 307 311 307 305 308 313 309 308 319 325 312 318 297 297 295 297 299 304 302 302 302 306 303 295 281 270 248 244 198 213
Height
3173 3174 3175 3176 3177 3176 3176 3177 3176 3176 3176 3177 3178 3177 3178 3180 3183 3184 3187 3188 3190 3192 3194 3195 3196 3198 3200 3201 3202 3204 3205 3206 3207 3208 3208 3209 3209 3210 3210 3212 3212 3212 3212 3212
3173 3173 3174 3175 3176 3176 3175 3176 3175 3175 3177 3178 3178 3178 3178 3179 3181 3183 3186 3188 3190 3192 3193 3195 3196 3197 3199 3200 3201 3202 3204 3206 3207 3207 3208 3208 3208 3209 3209 3208 3208 3209 3209 3209
3171 3174 3174 3174 3174 3175 3175 3175 3175 3176 3177 3178 3177 3179 3179 3180 3181 3184 3186 3188 3189 3191 3192 3194 3196 3197 3198 3200 3201 3202 3203 3204 3206 3205 3206 3206 3206 3206 3206 3206 3208 3208 3207 3206
3170 3172 3173 3173 3174 3174 3174 3175 3176 3176 3176 3176 3177 3179 3179 3180 3181 3182 3183 3185 3188 3189 3192 3194 3195 3197 3198 3200 3201 3201 3202 3204 3204 3203 3203 3203 3203 3203 3203 3204 3202 3202 3202 3201
3170 3170 3171 3172 3173 3173 3174 3173 3173 3173 3173 3173 3173 3174 3174 3177 3179 3179 3181 3183 3186 3188 3192 3194 3196 3198 3199 3200 3201 3201 3202 3202 3202 3201 3201 3200 3199 3200 3201 3201 3198 3197 3197 3196
3168 3169 3170 3171 3172 3172 3172 3171 3171 3171 3170 3171 3171 3171 3171 3171 3171 3176 3178 3180 3184 3187 3190 3193 3196 3198 3199 3200 3201 3202 3202 3203 3202 3200 3199 3198 3197 3196 3196 3196 3195 3194 3192 3191
3166 3167 3168 3169 3170 3171 3171 3170 3170 3172 3172 3171 3169 3169 3167 3168 3170 3174 3175 3179 3183 3186 3188 3191 3193 3195 3195 3196 3198 3198 3199 3199 3199 3199 3197 3196 3194 3192 3191 3191 3189 3188 3187 3186
3164 3165 3165 3165 3168 3170 3170 3171 3171 3176 3177 3170 3168 3167 3166 3166 3169 3174 3180 3182 3184 3184 3186 3188 3189 3191 3192 3193 3194 3195 3195 3195 3194 3194 3193 3191 3190 3187 3186 3184 3182 3181 3180 3179
3162 3163 3162 3163 3166 3169 3169 3170 3171 3170 3171 3171 3169 3169 3166 3164 3167 3174 3178 3180 3182 3183 3183 3185 3187 3189 3190 3191 3191 3191 3190 3188 3187 3186 3185 3183 3181 3180 3178 3176 3174 3172 3171 3170
3160 3162 3163 3164 3166 3168 3168 3169 3170 3170 3172 3172 3169 3168 3167 3166 3167 3172 3175 3178 3179 3181 3181 3182 3183 3184 3184 3184 3184 3184 3184 3183 3181 3179 3177 3175 3174 3171 3169 3167 3165 3162 3161 3160
3157 3160 3163 3163 3164 3165 3167 3166 3167 3168 3169 3170 3172 3168 3165 3167 3170 3172 3174 3176 3177 3178 3180 3181 3182 3182 3182 3181 3181 3180 3179 3178 3177 3175 3172 3169 3165 3162 3159 3158 3155 3152 3150 3148
3153 3156 3159 3161 3161 3163 3163 3163 3164 3164 3167 3167 3166 3167 3165 3167 3169 3170 3171 3173 3175 3177 3178 3178 3179 3179 3178 3178 3178 3177 3177 3175 3172 3168 3165 3161 3157 3153 3149 3145 3143 3142 3138 3136
3148 3151 3155 3159 3162 3160 3160 3161 3162 3162 3163 3163 3164 3165 3165 3165 3165 3167 3169 3171 3173 3173 3174 3174 3174 3174 3175 3176 3176 3175 3173 3169 3165 3160 3156 3153 3150 3144 3139 3134 3131 3128 3126 3124
3143 3144 3148 3150 3153 3156 3158 3159 3160 3161 3162 3161 3161 3161 3162 3162 3163 3165 3167 3168 3168 3169 3169 3170 3171 3171 3172 3172 3171 3167 3164 3160 3156 3151 3147 3143 3138 3133 3129 3124 3120 3116 3113 3112
3141 3143 3146 3149 3151 3153 3156 3157 3158 3159 3160 3160 3159 3159 3160 3162 3163 3164 3165 3165 3166 3166 3167 3167 3168 3168 3168 3165 3163 3159 3154 3150 3146 3142 3136 3130 3124 3120 3116 3113 3109 3105 3103 3101
3138 3141 3144 3146 3148 3151 3153 3154 3156 3156 3155 3154 3155 3155 3156 3157 3157 3159 3160 3162 3162 3163 3163 3163 3162 3161 3160 3158 3154 3150 3146 3141 3135 3130 3123 3117 3112 3108 3105 3101 3098 3095 3092 3091
3136 3139 3143 3145 3146 3147 3150 3149 3151 3152 3151 3150 3150 3151 3151 3153 3153 3154 3157 3158 3160 3159 3158 3158 3156 3154 3151 3149 3145 3141 3136 3129 3124 3118 3113 3107 3102 3097 3094 3090 3087 3084 3082 3080
3132 3136 3139 3139 3142 3145 3144 3147 3148 3147 3147 3146 3146 3146 3147 3148 3150 3151 3152 3154 3154 3154 3153 3151 3149 3146 3143 3140 3135 3131 3125 3119 3113 3108 3102 3097 3091 3087 3083 3079 3078 3075 3072 3070
3130 3132 3134 3137 3137 3139 3141 3144 3144 3144 3143 3143 3144 3145 3146 3146 3148 3149 3150 3149 3149 3148 3146 3144 3141 3137 3134 3131 3126 3120 3113 3107 3103 3097 3092 3086 3081 3076 3072 3070 3068 3066 3063 3059
3129 3130 3132 3133 3134 3135 3136 3140 3140 3140 3139 3138 3141 3142 3142 3143 3144 3145 3145 3144 3143 3142 3139 3136 3132 3128 3125 3121 3115 3109 3103 3096 3092 3086 3081 3076 3071 3068 3065 3062 3061 3057 3053 3049
3125 3126 3127 3128 3129 3130 3132 3134 3136 3136 3138 3135 3137 3138 3138 3140 3141 3141 3139 3138 3136 3133 3131 3127 3123 3119 3115 3110 3104 3097 3091 3087 3082 3077 3071 3066 3063 3059 3057 3055 3052 3049 3044 3041
3121 3123 3124 3124 3125 3125 3126 3129 3131 3131 3131 3132 3132 3133 3134 3135 3135 3135 3133 3131 3129 3126 3122 3119 3113 3108 3103 3098 3091 3086 3081 3077 3072 3067 3062 3058 3054 3050 3048 3046 3044 3041 3038 3034
3119 3119 3120 3122 3121 3120 3121 3123 3125 3126 3128 3128 3128 3130 3131 3131 3131 3130 3128 3125 3122 3117 3113 3108 3102 3096 3093 3088 3082 3076 3072 3067 3063 3058 3053 3049 3045 3043 3040 3037 3035 3033 3031 3028
3113 3113 3115 3117 3118 3118 3120 3121 3122 3123 3124 3125 3126 3126 3126 3125 3123 3120 3116 3112 3109 3105 3099 3095 3091 3085 3078 3075 3071 3066 3062 3058 3054 3049 3044 3041 3038 3035 3032 3028 3027 3026 3024 3022
3111 3112 3112 3113 3115 3116 3117 3118 3118 3119 3120 3121 3121 3120 3119 3117 3114 3110 3106 3103 3099 3095 3091 3085 3079 3073 3066 3063 3061 3058 3053 3049 3045 3040 3036 3034 3030 3027 3025 3022 3020 3019 3018 3019
3108 3110 3111 3111 3113 3113 3114 3114 3114 3114 3114 3114 3114 3113 3111 3108 3104 3101 3098 3094 3090 3086 3081 3076 3071 3064 3059 3057 3053 3050 3046 3041 3037 3033 3030 3027 3022 3018 3015 3015 3015 3015 3014 3017